Location: North Bay Shore
(40.7362°N, 73.2626°W)
Time: 05:38:58
(UTC+00:00)

BREEZE-M R/B - Pass Details

Date: 29 October 2020
Orbit: 309 x 4522 km, 49.7° (Epoch: 29 November)

Event Time Altitude Azimuth Distance (km) Brightness Sun altitude
Rises 22:17:19 0° 297° (WNW) 2,311 6.9 -5.4°
Reaches altitude 10° 22:19:10 10° 312° (NW) 1,654 5.8 -5.7°
Maximum altitude 22:22:17 27° 13° (NNE) 1,269 4.4 -6.3°
Drops below altitude 10° 22:27:34 10° 70° (ENE) 2,912 5.8 -7.3°
Enters shadow 22:28:13 - 72° (ENE) 3,157 6.0 -7.4°
